Wind_Speed
16 16 17 18 17 17 19 18 18 17 17 15 15 14 14 13 14 14 14 13 12 12 12 10 9 8 4 2 2 3 3 3 2 2 2 4 5 5 5 5 4 3 6
17 17 18 18 17 17 18 17 16 16 15 14 13 14 14 15 15 15 15 14 13 12 11 10 9 8 6 4 3 3 3 4 2 2 3 5 7 8 9 10 8 5 2
14 15 17 18 17 17 17 17 16 15 14 13 13 13 14 15 15 16 15 14 12 11 10 10 10 9 8 6 4 3 3 3 2 1 3 5 7 9 10 11 10 9 6
11 11 14 16 17 18 19 18 17 16 14 13 11 12 12 13 14 15 15 14 11 10 9 9 9 8 8 6 4 3 3 3 2 2 4 5 6 7 8 8 8 7 9
7 8 10 12 14 16 17 17 17 16 15 13 11 10 10 11 12 13 13 13 11 9 9 9 8 7 6 5 4 3 3 4 4 4 6 7 7 7 7 7 8 8 8
5 6 7 8 10 13 14 14 14 13 14 14 13 10 9 10 11 12 12 12 12 10 9 8 8 6 4 4 3 2 3 4 4 5 6 7 7 7 7 8 9 10 10
1 4 6 7 8 9 10 10 10 10 10 11 11 12 10 9 9 9 10 10 11 10 7 6 6 6 5 3 2 2 2 3 4 5 6 6 7 8 9 9 11 11 10
5 5 5 6 7 8 9 9 8 8 8 8 8 8 8 8 7 7 7 8 9 9 7 5 4 4 4 3 2 3 4 5 5 5 5 6 7 9 10 11 12 13 12
10 10 9 8 9 9 10 10 10 9 9 9 8 7 7 6 6 6 7 7 8 9 8 6 4 4 4 4 4 4 5 6 7 7 6 6 7 9 10 10 10 12 13
10 11 12 12 12 11 12 13 13 12 11 11 11 9 8 7 7 8 9 9 8 9 8 6 5 5 5 5 5 5 6 7 8 8 7 6 6 7 8 9 11 14 13
11 12 12 13 13 13 13 14 15 15 14 13 12 11 10 10 9 11 11 11 10 10 9 7 6 7 7 8 8 7 8 9 9 9 9 9 7 5 7 9 13 14 14
13 15 16 14 14 15 16 17 17 16 15 14 13 13 13 12 13 13 13 13 12 11 11 10 9 10 10 10 11 11 10 11 11 10 10 9 9 9 9 10 13 14 14
17 19 20 19 19 21 21 20 20 17 15 14 14 14 13 13 14 13 12 12 13 13 12 13 14 13 12 12 13 13 13 13 13 13 12 10 10 11 11 12 13 15 15
22 22 21 20 22 26 27 25 22 20 17 14 13 12 12 13 13 13 13 14 15 15 13 14 16 15 14 14 14 16 16 16 17 17 15 13 11 11 13 14 15 16 16
18 17 18 20 24 27 28 27 23 20 19 17 15 15 15 14 14 15 16 17 17 16 15 15 15 15 15 16 15 16 18 19 19 20 19 18 14 13 15 16 17 17 17
15 15 17 20 25 28 27 24 22 20 20 18 17 17 17 16 16 17 18 19 18 17 16 15 15 15 15 17 18 19 20 21 20 20 21 20 19 16 16 16 17 18 18
19 19 20 23 27 28 27 24 22 22 22 21 19 18 19 19 19 19 19 20 21 20 19 19 19 18 16 17 18 19 21 21 21 20 21 21 21 20 19 19 19 19 20
21 22 24 25 27 30 31 29 25 24 23 21 19 17 18 19 20 20 20 22 23 23 22 20 20 20 18 18 19 20 20 21 21 21 21 22 22 22 22 21 21 20 20
23 24 25 27 29 32 35 34 30 27 24 21 19 20 20 21 22 23 24 25 25 24 23 21 21 22 21 21 21 20 19 19 21 21 22 22 22 23 23 22 22 22 21
25 26 28 30 32 34 36 32 28 28 27 24 23 23 23 24 25 26 27 27 26 24 23 24 25 26 24 23 21 20 19 19 20 21 22 23 22 23 23 23 22 23 22
26 28 30 32 33 34 35 32 31 31 31 30 27 26 26 28 29 28 29 28 26 25 25 26 28 28 26 23 21 20 20 21 22 22 21 21 21 22 23 24 23 23 22
29 31 32 33 33 36 38 39 37 36 35 34 31 31 32 32 31 30 30 28 28 28 28 28 29 27 24 21 21 21 22 22 22 23 21 20 21 23 24 24 23 23 23
31 33 35 35 36 37 39 42 42 41 41 39 38 36 36 35 34 31 30 28 27 28 28 28 27 26 24 23 22 21 21 21 22 22 21 22 23 24 24 24 24 23 23
32 35 38 41 42 42 42 44 47 47 47 47 45 41 38 36 33 30 28 27 27 28 28 28 27 26 26 26 25 23 22 22 21 21 21 22 23 24 23 23 22 22 22
33 35 40 45 48 49 49 49 49 49 49 49 46 43 38 32 28 27 27 28 29 29 29 28 28 28 29 29 27 25 24 23 21 21 21 21 22 22 22 21 22 22 21
36 36 39 44 48 51 52 48 50 51 49 47 44 41 37 34 30 29 29 30 31 31 31 32 32 33 33 31 30 28 26 24 23 21 21 21 20 19 21 21 22 20 19
Wind_Direction
90 92 95 98 101 101 98 94 90 89 88 87 85 81 77 72 67 65 66 64 61 58 54 51 48 51 69 73 25 2 356 351 6 345 309 302 309 313 305 304 322 9 43
78 78 82 86 90 92 92 92 89 85 82 81 79 75 69 62 57 56 57 60 62 63 63 59 52 47 52 54 29 10 8 11 31 37 353 318 308 304 301 299 292 285 337
73 72 73 76 79 80 80 81 82 82 80 79 76 72 67 61 55 53 53 55 59 65 68 67 61 54 50 47 35 15 3 9 19 30 358 333 317 305 301 303 294 267 261
65 68 68 68 70 72 73 73 72 72 73 72 70 66 65 62 55 50 49 50 54 61 67 68 66 63 61 56 43 14 347 330 312 312 329 329 325 315 300 303 313 293 268
54 55 61 63 66 68 68 68 66 65 64 64 63 60 56 55 53 49 45 43 44 50 56 59 60 60 65 68 60 32 352 334 326 318 319 318 314 311 300 294 306 311 294
58 49 59 57 61 63 64 64 62 61 59 57 57 56 53 49 46 44 43 41 39 40 44 46 45 41 47 53 49 25 351 344 332 322 325 324 321 313 304 293 291 300 297
30 31 43 44 45 47 47 49 50 47 46 48 49 49 51 50 48 46 40 36 36 36 32 35 43 35 33 38 17 334 316 324 322 319 330 330 317 306 297 288 282 287 293
304 319 342 359 11 20 19 17 21 19 17 25 34 36 38 39 38 36 30 23 21 22 18 12 27 31 22 9 344 312 305 305 300 303 313 317 309 305 296 290 284 284 287
314 321 327 330 335 346 349 345 342 340 338 340 349 3 9 2 354 353 357 2 3 2 359 355 357 0 354 337 321 317 310 303 299 298 301 313 320 318 303 290 289 298 296
317 321 321 320 321 327 331 330 326 322 319 317 319 326 332 330 324 322 326 334 344 345 340 335 333 329 321 313 305 305 302 293 295 299 306 317 330 334 321 293 298 309 304
313 316 316 314 319 325 328 327 321 315 310 306 302 304 307 309 310 308 311 316 322 326 325 316 313 311 307 306 303 301 300 293 286 291 301 311 316 314 312 298 301 309 304
307 301 299 303 315 323 328 328 321 311 304 300 292 286 291 299 303 305 307 309 308 311 316 311 305 305 303 303 300 294 292 295 295 293 294 304 308 307 306 299 298 303 306
299 295 287 288 302 315 321 324 324 314 302 295 287 280 281 289 298 303 307 306 304 305 308 307 303 305 307 310 307 296 293 296 297 291 289 296 302 303 304 299 292 291 296
287 284 277 279 294 305 310 314 318 316 304 293 286 281 282 288 293 298 301 301 299 299 299 299 300 303 306 310 313 306 298 295 294 291 287 287 289 291 293 293 290 286 286
277 271 266 273 285 294 299 301 303 305 299 287 278 278 283 284 287 292 297 296 293 293 294 296 299 305 305 305 310 312 306 298 293 290 287 283 280 278 282 285 286 284 282
260 260 257 268 280 286 288 289 290 291 289 284 282 283 286 288 293 296 299 298 294 292 289 288 292 301 303 304 311 316 313 307 297 291 288 281 276 276 280 284 282 280 278
253 256 260 269 278 282 280 280 283 285 282 280 282 286 290 292 296 298 297 296 296 294 291 290 292 296 298 299 305 310 311 310 304 293 288 280 275 275 279 284 282 276 273
255 260 265 269 273 276 276 276 277 279 279 278 279 281 285 289 291 290 287 287 288 290 290 289 290 290 294 296 299 303 306 309 307 298 291 285 280 278 281 286 283 274 269
255 259 261 263 266 270 272 274 271 271 272 273 272 274 279 283 283 281 280 281 284 285 286 287 288 290 291 292 294 298 300 303 304 301 294 290 287 285 287 290 284 273 266
251 250 252 256 260 264 269 270 264 264 267 271 272 271 278 284 283 279 277 278 279 280 280 284 287 288 289 290 292 294 295 297 299 299 295 294 292 289 289 290 285 275 267
242 241 245 250 253 258 264 263 259 259 263 269 272 271 275 280 281 279 278 278 278 279 281 284 287 287 288 288 290 292 293 296 298 299 296 293 291 290 289 288 286 278 268
241 238 240 244 248 254 260 262 258 258 260 264 271 275 276 276 277 275 274 274 277 280 283 286 287 287 287 288 292 295 296 298 299 299 299 296 292 290 288 286 286 279 270
243 242 243 245 246 250 257 261 260 259 260 263 267 274 278 278 272 269 270 272 275 279 282 285 287 286 286 289 293 295 295 297 298 298 299 298 296 293 288 284 284 280 274
249 249 248 248 247 249 253 259 260 260 259 261 264 269 275 276 268 263 268 271 272 275 279 283 286 287 288 290 293 292 290 291 293 296 297 296 294 293 291 286 284 280 275
257 256 254 252 251 250 252 254 256 258 258 260 260 263 269 267 262 263 267 269 269 271 276 280 282 284 287 289 290 289 287 286 287 293 298 297 295 295 292 288 287 281 276
258 257 256 255 254 254 254 255 255 255 257 259 258 258 261 263 265 266 267 267 267 270 275 278 279 281 282 284 285 285 283 281 280 289 297 297 295 292 289 289 287 281 278
Height
5910 5910 5908 5908 5908 5908 5908 5908 5909 5909 5910 5910 5910 5911 5911 5911 5910 5910 5909 5908 5907 5907 5907 5907 5905 5905 5904 5905 5905 5906 5905 5905 5905 5906 5906 5906 5906 5906 5905 5905 5904 5903 5903
5914 5914 5913 5911 5911 5910 5909 5910 5910 5912 5912 5912 5912 5913 5912 5912 5912 5911 5910 5910 5909 5908 5908 5908 5907 5906 5906 5905 5905 5906 5906 5905 5905 5905 5905 5905 5905 5905 5905 5904 5903 5903 5903
5917 5917 5916 5915 5914 5913 5912 5912 5913 5914 5915 5915 5915 5914 5914 5913 5913 5913 5912 5911 5910 5910 5909 5909 5908 5908 5907 5907 5906 5906 5905 5905 5905 5905 5904 5904 5904 5904 5903 5903 5902 5902 5902
5919 5919 5919 5918 5917 5916 5915 5915 5915 5916 5917 5917 5917 5917 5916 5915 5915 5914 5913 5912 5912 5911 5910 5909 5909 5908 5908 5907 5907 5906 5905 5905 5905 5905 5904 5903 5903 5902 5902 5901 5901 5901 5902
5921 5921 5921 5921 5920 5919 5918 5918 5918 5918 5918 5919 5918 5918 5918 5917 5916 5915 5914 5913 5913 5912 5911 5910 5909 5908 5908 5907 5907 5906 5905 5905 5904 5904 5903 5903 5902 5901 5901 5900 5900 5900 5900
5923 5923 5923 5923 5922 5921 5920 5920 5920 5921 5920 5920 5919 5918 5918 5917 5917 5916 5915 5914 5913 5913 5913 5912 5911 5910 5908 5908 5907 5906 5905 5904 5903 5902 5902 5901 5900 5900 5899 5899 5898 5898 5898
5925 5925 5925 5925 5924 5922 5922 5922 5922 5923 5922 5922 5921 5920 5919 5918 5918 5916 5915 5914 5913 5913 5913 5912 5912 5910 5909 5908 5907 5906 5904 5903 5903 5902 5901 5900 5899 5898 5897 5896 5896 5896 5896
5927 5926 5927 5927 5925 5923 5923 5924 5923 5923 5924 5923 5922 5922 5921 5920 5919 5917 5916 5914 5913 5912 5912 5911 5911 5910 5909 5908 5907 5906 5905 5903 5902 5901 5900 5899 5898 5897 5896 5895 5894 5894 5894
5927 5927 5927 5927 5927 5925 5924 5925 5924 5923 5923 5924 5923 5922 5921 5920 5920 5918 5916 5915 5914 5913 5912 5911 5911 5911 5909 5908 5906 5905 5904 5903 5901 5900 5899 5898 5897 5896 5894 5893 5893 5892 5891
5925 5926 5927 5927 5926 5925 5924 5924 5924 5923 5922 5922 5922 5922 5920 5919 5919 5918 5917 5915 5913 5912 5911 5911 5910 5909 5909 5907 5905 5904 5903 5901 5899 5898 5897 5896 5895 5894 5892 5892 5892 5891 5889
5924 5924 5925 5925 5925 5924 5923 5923 5923 5922 5921 5920 5920 5920 5919 5918 5917 5916 5915 5914 5913 5911 5910 5910 5909 5908 5907 5906 5905 5903 5902 5900 5898 5897 5896 5895 5894 5893 5891 5890 5889 5888 5887
5922 5923 5923 5923 5923 5922 5922 5921 5921 5921 5920 5918 5918 5918 5917 5916 5915 5914 5913 5913 5911 5910 5909 5909 5908 5907 5906 5905 5904 5902 5901 5900 5898 5896 5894 5893 5892 5891 5890 5888 5887 5885 5884
5920 5920 5920 5920 5920 5919 5919 5918 5919 5918 5917 5916 5915 5915 5914 5914 5913 5912 5910 5910 5909 5908 5906 5906 5906 5905 5905 5903 5902 5901 5900 5899 5897 5895 5893 5892 5890 5889 5888 5886 5885 5883 5882
5917 5917 5917 5917 5917 5916 5915 5915 5915 5915 5914 5913 5912 5912 5911 5911 5910 5910 5908 5908 5908 5906 5904 5904 5904 5903 5902 5900 5900 5899 5898 5896 5895 5893 5891 5889 5888 5887 5885 5883 5882 5880 5879
5913 5913 5913 5913 5913 5913 5912 5911 5911 5911 5911 5910 5910 5909 5909 5908 5907 5907 5906 5905 5904 5903 5901 5900 5901 5900 5899 5898 5896 5896 5895 5893 5892 5890 5888 5886 5885 5883 5882 5880 5879 5877 5875
5909 5909 5909 5909 5909 5909 5908 5908 5907 5907 5907 5907 5907 5906 5905 5905 5904 5904 5903 5902 5901 5900 5899 5898 5898 5897 5896 5895 5893 5892 5891 5889 5888 5886 5884 5882 5881 5880 5878 5877 5875 5873 5871
5905 5904 5904 5905 5905 5904 5904 5904 5903 5904 5903 5903 5903 5903 5902 5902 5901 5900 5900 5898 5897 5896 5895 5894 5894 5893 5892 5891 5889 5888 5886 5885 5884 5883 5880 5878 5877 5876 5874 5873 5870 5869 5867
5899 5899 5899 5900 5900 5899 5898 5898 5899 5899 5898 5898 5898 5898 5898 5897 5896 5896 5896 5895 5894 5892 5891 5890 5890 5889 5888 5887 5885 5883 5882 5881 5880 5879 5877 5875 5873 5871 5870 5868 5866 5864 5863
5893 5893 5893 5893 5893 5892 5891 5891 5892 5893 5893 5892 5892 5892 5892 5892 5892 5892 5891 5891 5890 5888 5887 5886 5886 5885 5884 5882 5881 5879 5877 5876 5875 5875 5873 5872 5870 5867 5865 5864 5862 5861 5859
5887 5887 5887 5886 5885 5884 5883 5884 5884 5885 5885 5885 5886 5885 5886 5887 5887 5887 5886 5886 5885 5884 5883 5882 5882 5881 5880 5879 5876 5874 5873 5872 5871 5870 5869 5868 5866 5864 5861 5859 5858 5857 5855
5880 5880 5880 5879 5877 5876 5875 5876 5877 5877 5876 5877 5878 5879 5880 5881 5881 5880 5880 5880 5879 5879 5878 5878 5877 5876 5875 5874 5872 5870 5869 5869 5867 5866 5864 5863 5861 5859 5857 5855 5853 5852 5851
5872 5872 5871 5870 5870 5869 5868 5867 5868 5868 5868 5869 5870 5871 5872 5873 5873 5873 5873 5873 5872 5872 5872 5872 5871 5871 5870 5869 5867 5866 5865 5865 5863 5861 5859 5858 5856 5855 5853 5851 5849 5847 5846
5864 5864 5863 5862 5861 5861 5860 5858 5858 5858 5859 5861 5862 5863 5864 5865 5866 5866 5866 5867 5867 5866 5866 5865 5865 5864 5864 5863 5862 5861 5860 5859 5858 5856 5855 5853 5851 5850 5848 5846 5844 5843 5842
5855 5855 5854 5853 5852 5851 5850 5849 5847 5848 5849 5851 5853 5854 5855 5855 5856 5858 5858 5859 5860 5860 5859 5859 5859 5858 5858 5857 5856 5855 5855 5854 5853 5851 5850 5848 5846 5845 5843 5841 5839 5838 5838
5844 5844 5844 5844 5842 5841 5839 5837 5835 5835 5837 5840 5843 5845 5847 5848 5849 5850 5851 5852 5853 5853 5853 5853 5853 5852 5851 5850 5849 5849 5849 5848 5847 5846 5844 5842 5840 5839 5838 5836 5834 5833 5833
5831 5831 5831 5831 5831 5830 5828 5825 5823 5825 5828 5831 5833 5835 5838 5841 5842 5843 5844 5844 5845 5845 5846 5846 5846 5846 5845 5844 5843 5843 5842 5842 5842 5840 5838 5836 5834 5834 5833 5831 5830 5829 5828